QPF
0.01 0.00 0.00 0.00 0.00 0.00 0.00 0.00 0.00 0.00 0.00 0.00 0.00 0.00 0.00 0.00 0.00 0.00 0.00 0.00 0.00 0.00 0.00 0.00 0.00 0.00 0.00 0.00 0.00 0.00 0.00 0.00 0.00
0.01 0.00 0.00 0.00 0.00 0.00 0.00 0.00 0.00 0.00 0.00 0.00 0.00 0.00 0.00 0.00 0.00 0.00 0.00 0.00 0.00 0.00 0.00 0.00 0.00 0.00 0.00 0.00 0.00 0.00 0.00 0.00 0.00
0.00 0.00 0.00 0.00 0.00 0.00 0.00 0.00 0.00 0.00 0.00 0.00 0.00 0.00 0.00 0.00 0.00 0.00 0.00 0.00 0.00 0.00 0.00 0.00 0.00 0.00 0.00 0.00 0.00 0.00 0.00 0.00 0.00
0.00 0.00 0.00 0.00 0.00 0.00 0.00 0.00 0.00 0.00 0.00 0.00 0.00 0.00 0.00 0.00 0.00 0.00 0.00 0.00 0.00 0.00 0.00 0.00 0.00 0.00 0.00 0.00 0.00 0.00 0.00 0.00 0.00
0.00 0.00 0.00 0.00 0.00 0.00 0.00 0.00 0.00 0.00 0.00 0.00 0.00 0.00 0.00 0.00 0.00 0.00 0.00 0.00 0.00 0.00 0.00 0.00 0.00 0.00 0.00 0.00 0.00 0.00 0.00 0.00 0.00
0.00 0.00 0.00 0.00 0.00 0.00 0.00 0.00 0.00 0.00 0.00 0.00 0.00 0.00 0.00 0.00 0.00 0.00 0.00 0.00 0.00 0.00 0.00 0.00 0.00 0.00 0.00 0.00 0.00 0.00 0.00 0.00 0.00
0.00 0.00 0.00 0.00 0.00 0.00 0.00 0.00 0.00 0.00 0.00 0.00 0.00 0.00 0.00 0.00 0.00 0.00 0.00 0.00 0.00 0.00 0.00 0.00 0.00 0.00 0.00 0.00 0.00 0.00 0.00 0.00 0.00
0.00 0.00 0.00 0.00 0.00 0.00 0.00 0.00 0.00 0.00 0.00 0.00 0.00 0.00 0.00 0.00 0.00 0.00 0.00 0.00 0.00 0.00 0.00 0.00 0.00 0.00 0.00 0.00 0.00 0.00 0.00 0.00 0.00
0.00 0.00 0.00 0.00 0.00 0.00 0.00 0.00 0.00 0.00 0.00 0.00 0.00 0.00 0.00 0.00 0.00 0.00 0.00 0.00 0.00 0.00 0.01 0.01 0.01 0.01 0.01 0.01 0.02 0.02 0.02 0.01 0.00
0.00 0.00 0.00 0.00 0.00 0.00 0.00 0.00 0.00 0.00 0.00 0.00 0.00 0.00 0.00 0.00 0.00 0.00 0.00 0.00 0.00 0.00 0.00 0.01 0.01 0.02 0.03 0.03 0.04 0.05 0.05 0.04 0.02
0.00 0.00 0.00 0.00 0.00 0.00 0.00 0.00 0.00 0.00 0.00 0.00 0.00 0.00 0.00 0.00 0.00 0.00 0.00 0.00 0.00 0.00 0.00 0.00 0.01 0.02 0.04 0.03 0.03 0.02 0.03 0.04 0.05
0.00 0.00 0.00 0.00 0.00 0.00 0.00 0.00 0.00 0.00 0.00 0.00 0.00 0.00 0.00 0.00 0.00 0.00 0.00 0.00 0.00 0.00 0.00 0.01 0.01 0.01 0.01 0.01 0.02 0.02 0.02 0.03 0.04
0.00 0.00 0.00 0.00 0.00 0.00 0.00 0.00 0.00 0.00 0.00 0.00 0.00 0.00 0.00 0.00 0.00 0.00 0.00 0.00 0.00 0.00 0.00 0.00 0.00 0.00 0.00 0.00 0.01 0.03 0.04 0.04 0.04
0.00 0.00 0.00 0.00 0.00 0.00 0.00 0.00 0.00 0.00 0.00 0.00 0.00 0.00 0.00 0.00 0.00 0.00 0.00 0.00 0.00 0.00 0.00 0.00 0.00 0.00 0.00 0.00 0.00 0.01 0.01 0.01 0.01
0.00 0.00 0.00 0.00 0.00 0.00 0.00 0.00 0.00 0.00 0.00 0.00 0.00 0.00 0.00 0.00 0.00 0.00 0.00 0.00 0.00 0.00 0.00 0.00 0.00 0.00 0.00 0.00 0.00 0.00 0.00 0.00 0.00
0.00 0.00 0.00 0.00 0.00 0.00 0.00 0.00 0.00 0.00 0.00 0.00 0.00 0.00 0.00 0.00 0.00 0.00 0.00 0.00 0.00 0.00 0.00 0.00 0.00 0.00 0.00 0.00 0.00 0.00 0.00 0.00 0.00
0.00 0.00 0.00 0.00 0.00 0.00 0.00 0.00 0.00 0.00 0.00 0.00 0.00 0.00 0.00 0.00 0.00 0.00 0.00 0.00 0.00 0.00 0.00 0.00 0.00 0.00 0.00 0.00 0.00 0.00 0.00 0.00 0.00
0.00 0.00 0.00 0.00 0.00 0.00 0.00 0.00 0.00 0.00 0.00 0.00 0.00 0.00 0.00 0.00 0.00 0.00 0.00 0.00 0.00 0.00 0.00 0.00 0.00 0.00 0.00 0.00 0.00 0.00 0.00 0.00 0.00
0.00 0.00 0.00 0.00 0.00 0.00 0.00 0.00 0.00 0.00 0.00 0.00 0.00 0.00 0.00 0.00 0.00 0.00 0.00 0.00 0.00 0.00 0.00 0.00 0.00 0.00 0.00 0.00 0.00 0.00 0.00 0.00 0.00
0.00 0.00 0.00 0.00 0.00 0.00 0.00 0.00 0.00 0.00 0.00 0.00 0.00 0.00 0.00 0.00 0.00 0.00 0.00 0.00 0.00 0.00 0.00 0.00 0.00 0.00 0.00 0.00 0.00 0.00 0.00 0.00 0.00
MSLP
1013.77 1013.93 1014.31 1014.48 1014.43 1014.52 1014.46 1014.52 1014.48 1014.50 1014.49 1014.46 1014.37 1014.29 1014.25 1014.21 1014.44 1014.35 1014.23 1013.93 1013.71 1013.32 1013.53 1013.59 1013.67 1013.68 1013.64 1013.63 1013.65 1013.75 1013.74 1013.73 1013.81
1013.74 1013.88 1014.09 1014.26 1014.35 1014.42 1014.49 1014.44 1014.45 1014.43 1014.37 1014.30 1014.25 1014.14 1014.15 1014.18 1014.18 1014.19 1014.05 1013.75 1013.60 1013.27 1013.23 1013.20 1013.32 1013.39 1013.38 1013.34 1013.33 1013.35 1013.30 1013.30 1013.39
1013.70 1013.92 1014.24 1014.30 1014.40 1014.42 1014.46 1014.42 1014.38 1014.30 1014.21 1014.09 1013.98 1013.89 1013.95 1014.00 1014.10 1013.99 1013.88 1013.63 1013.32 1013.13 1012.97 1013.06 1013.14 1013.15 1013.19 1013.05 1013.07 1013.00 1013.04 1013.07 1013.00
1013.71 1013.85 1014.12 1014.21 1014.29 1014.36 1014.38 1014.34 1014.25 1014.18 1014.05 1013.90 1013.77 1013.73 1013.74 1013.83 1013.89 1013.72 1013.54 1013.39 1013.04 1012.85 1012.51 1012.63 1012.79 1012.87 1012.91 1012.86 1012.66 1012.67 1012.51 1012.58 1012.66
1013.80 1013.85 1014.07 1014.14 1014.25 1014.22 1014.14 1014.11 1013.97 1013.85 1013.76 1013.63 1013.51 1013.49 1013.55 1013.54 1013.48 1013.36 1013.24 1012.85 1012.59 1012.38 1012.22 1012.25 1012.33 1012.47 1012.49 1012.49 1012.36 1012.23 1012.20 1012.09 1012.08
1013.82 1013.91 1014.00 1013.98 1013.97 1013.88 1013.84 1013.75 1013.63 1013.56 1013.46 1013.32 1013.16 1013.14 1013.06 1013.00 1013.01 1012.91 1012.59 1012.31 1012.07 1011.80 1011.66 1011.67 1011.76 1011.83 1011.92 1011.96 1011.96 1011.90 1011.84 1011.69 1011.66
1013.59 1013.59 1013.61 1013.64 1013.59 1013.51 1013.44 1013.40 1013.28 1013.23 1013.20 1013.11 1012.91 1012.84 1012.61 1012.58 1012.46 1012.34 1011.94 1011.70 1011.31 1011.16 1011.08 1011.13 1011.15 1011.19 1011.28 1011.28 1011.27 1011.29 1011.25 1011.22 1011.14
1013.47 1013.54 1013.58 1013.53 1013.41 1013.41 1013.33 1013.30 1013.18 1013.11 1012.97 1012.80 1012.60 1012.37 1012.34 1012.29 1012.11 1011.65 1011.39 1011.11 1010.89 1010.67 1010.51 1010.48 1010.45 1010.54 1010.55 1010.56 1010.51 1010.59 1010.47 1010.42 1010.41
1013.31 1013.45 1013.32 1013.39 1013.28 1013.22 1013.18 1012.98 1012.74 1012.63 1012.47 1012.43 1012.28 1012.05 1012.02 1012.02 1011.80 1011.55 1011.32 1011.22 1010.93 1010.51 1010.06 1010.09 1009.98 1009.98 1009.82 1009.73 1009.61 1009.54 1009.63 1009.63 1009.55
1013.29 1013.21 1013.22 1013.06 1012.97 1012.93 1012.87 1012.80 1012.82 1012.92 1012.73 1012.61 1012.47 1012.24 1012.01 1011.82 1011.68 1011.48 1011.11 1010.84 1010.53 1010.25 1009.98 1009.60 1009.24 1009.17 1009.04 1009.02 1009.05 1008.92 1008.86 1008.83 1008.74
1013.41 1013.55 1013.52 1013.28 1013.25 1013.39 1013.50 1013.63 1013.54 1013.34 1013.17 1013.01 1012.73 1012.60 1012.32 1012.07 1011.89 1011.63 1011.43 1011.05 1010.82 1010.59 1010.04 1009.64 1009.20 1009.14 1008.98 1008.78 1008.58 1008.42 1008.23 1008.09 1007.95
1013.39 1013.90 1014.00 1014.03 1013.93 1013.81 1013.80 1013.82 1013.80 1013.76 1013.57 1013.44 1013.17 1012.87 1012.52 1012.29 1012.13 1011.87 1011.68 1011.41 1011.00 1010.75 1010.38 1010.02 1009.59 1009.32 1009.13 1008.73 1008.21 1007.99 1007.90 1007.80 1007.55
1013.95 1014.30 1014.65 1014.56 1014.37 1014.38 1014.49 1014.57 1014.48 1014.41 1014.22 1013.90 1013.49 1013.16 1012.81 1012.58 1012.25 1012.08 1011.85 1011.45 1011.20 1010.94 1010.65 1010.36 1009.97 1009.69 1009.32 1009.16 1008.65 1008.35 1007.93 1007.63 1007.32
1014.46 1014.94 1015.13 1014.91 1015.00 1015.08 1015.09 1015.08 1015.02 1015.00 1014.64 1014.07 1013.66 1013.08 1012.88 1012.59 1012.33 1012.19 1011.70 1011.49 1011.35 1011.13 1010.83 1010.48 1010.24 1009.99 1009.55 1009.18 1008.74 1008.43 1008.06 1007.76 1007.29
1015.08 1015.32 1015.41 1015.38 1015.53 1015.55 1015.50 1015.46 1015.17 1015.16 1015.03 1014.37 1013.95 1013.16 1012.74 1012.60 1012.59 1012.37 1011.84 1011.73 1011.45 1011.22 1010.84 1010.57 1010.12 1009.77 1009.48 1009.27 1008.87 1008.38 1007.97 1007.47 1006.84
1015.54 1015.72 1015.82 1015.81 1015.91 1016.03 1015.93 1015.71 1015.68 1015.38 1015.07 1014.76 1014.03 1013.30 1012.72 1012.80 1012.61 1012.47 1012.14 1011.86 1011.58 1011.19 1010.98 1010.77 1010.55 1010.22 1009.84 1009.37 1008.98 1008.53 1007.92 1007.28 1006.66
1015.83 1016.07 1016.18 1016.21 1016.22 1016.24 1016.28 1016.26 1016.26 1015.97 1015.66 1015.75 1014.97 1014.39 1013.52 1012.91 1013.16 1012.76 1012.29 1012.03 1011.81 1011.52 1011.25 1011.10 1010.71 1010.45 1010.11 1009.72 1009.16 1008.54 1007.87 1007.12 1006.70
1016.13 1016.22 1016.33 1016.43 1016.48 1016.63 1016.61 1016.54 1016.60 1016.60 1016.09 1015.90 1016.02 1015.76 1015.43 1014.42 1013.12 1013.02 1012.64 1012.33 1012.13 1011.86 1011.54 1011.06 1010.62 1010.25 1009.91 1009.49 1009.10 1008.65 1008.00 1007.04 1006.56
1016.40 1016.49 1016.54 1016.67 1016.74 1016.81 1016.78 1016.69 1016.67 1016.60 1016.59 1016.10 1016.00 1016.38 1016.32 1015.76 1013.85 1013.17 1012.97 1012.47 1012.07 1011.76 1011.36 1010.96 1010.52 1010.05 1009.70 1009.30 1009.00 1008.34 1007.76 1007.14 1006.42
1016.72 1016.78 1016.84 1016.88 1016.88 1016.90 1016.84 1016.74 1016.71 1016.65 1016.71 1016.63 1016.31 1016.05 1015.81 1015.57 1015.26 1013.28 1012.95 1012.72 1012.11 1011.56 1011.11 1010.72 1010.32 1009.89 1009.50 1009.15 1008.53 1007.98 1007.40 1006.69 1006.08
Thickness
5726 5723 5720 5719 5719 5718 5718 5717 5717 5716 5715 5715 5715 5714 5714 5714 5713 5713 5713 5713 5713 5714 5711 5711 5709 5709 5708 5708 5707 5705 5705 5704 5703
5723 5721 5719 5717 5715 5714 5712 5712 5711 5711 5710 5710 5710 5710 5710 5709 5710 5709 5709 5710 5708 5710 5709 5707 5706 5704 5704 5704 5703 5702 5702 5701 5700
5719 5717 5713 5712 5710 5709 5708 5708 5707 5706 5706 5706 5707 5707 5706 5705 5704 5704 5705 5705 5704 5704 5704 5702 5700 5699 5698 5698 5697 5697 5696 5695 5695
5715 5713 5710 5708 5706 5705 5704 5704 5703 5703 5703 5703 5704 5703 5702 5700 5699 5698 5698 5698 5699 5698 5700 5697 5694 5692 5691 5691 5691 5691 5691 5689 5688
5711 5709 5706 5704 5702 5701 5701 5700 5700 5700 5700 5700 5699 5698 5696 5695 5694 5693 5692 5694 5694 5693 5692 5691 5688 5685 5684 5683 5683 5683 5683 5683 5683
5708 5705 5703 5701 5700 5699 5698 5697 5697 5696 5696 5696 5695 5694 5693 5692 5690 5688 5688 5688 5688 5688 5687 5684 5682 5680 5679 5678 5677 5676 5676 5676 5676
5706 5704 5702 5700 5699 5698 5696 5695 5694 5693 5692 5691 5691 5689 5689 5687 5686 5684 5685 5684 5683 5682 5682 5680 5679 5677 5676 5674 5673 5672 5671 5671 5671
5704 5702 5700 5698 5697 5695 5693 5691 5690 5689 5687 5686 5685 5684 5682 5680 5679 5680 5680 5679 5679 5678 5679 5677 5676 5674 5674 5671 5671 5669 5669 5668 5667
5699 5697 5696 5693 5692 5690 5687 5686 5685 5683 5683 5680 5679 5678 5676 5673 5673 5673 5673 5671 5671 5672 5674 5671 5671 5668 5669 5669 5668 5667 5664 5663 5663
5693 5692 5690 5689 5688 5686 5683 5681 5677 5674 5673 5671 5670 5669 5669 5668 5666 5667 5668 5668 5668 5667 5665 5664 5666 5664 5665 5664 5662 5661 5659 5658 5657
5686 5683 5681 5681 5679 5675 5672 5668 5665 5664 5664 5662 5661 5660 5658 5658 5657 5657 5657 5657 5655 5654 5656 5656 5658 5655 5654 5653 5653 5653 5652 5652 5651
5679 5674 5671 5669 5667 5665 5662 5659 5656 5655 5654 5651 5651 5650 5650 5648 5648 5647 5645 5645 5645 5643 5643 5643 5643 5642 5642 5642 5644 5642 5641 5640 5640
5669 5665 5660 5659 5657 5653 5650 5646 5644 5642 5641 5640 5640 5640 5639 5639 5639 5636 5635 5635 5633 5631 5629 5628 5629 5628 5627 5625 5627 5626 5626 5626 5627
5660 5654 5650 5649 5644 5640 5637 5633 5632 5630 5630 5632 5631 5632 5629 5630 5627 5625 5625 5623 5621 5618 5616 5615 5612 5610 5610 5610 5610 5608 5608 5607 5608
5649 5644 5640 5637 5632 5628 5626 5623 5621 5619 5618 5621 5621 5623 5621 5620 5615 5614 5613 5609 5606 5603 5601 5599 5598 5595 5593 5590 5589 5589 5590 5591 5593
5638 5634 5629 5625 5620 5616 5614 5612 5609 5607 5606 5606 5610 5611 5611 5606 5603 5599 5596 5592 5589 5586 5582 5578 5574 5573 5571 5569 5567 5567 5568 5570 5572
5627 5623 5618 5614 5609 5606 5601 5598 5595 5592 5590 5586 5587 5590 5595 5595 5587 5583 5580 5575 5572 5569 5564 5559 5556 5552 5550 5547 5546 5546 5545 5548 5547
5617 5612 5608 5603 5599 5593 5589 5585 5582 5577 5575 5570 5564 5558 5557 5567 5575 5571 5564 5560 5554 5549 5544 5540 5537 5533 5529 5526 5524 5521 5520 5524 5521
5606 5601 5597 5592 5587 5582 5578 5575 5569 5565 5560 5558 5551 5539 5529 5525 5540 5549 5545 5541 5537 5532 5527 5522 5517 5513 5508 5504 5499 5498 5496 5493 5493
5594 5590 5586 5582 5577 5572 5568 5563 5558 5552 5546 5540 5536 5531 5523 5515 5508 5518 5514 5515 5513 5511 5506 5499 5494 5487 5481 5475 5472 5468 5466 5463 5460